Regional Weather Roundup
Issued by NWS

Home | Current Version | Previous Version | Graphics & Text | Print | Product List | Glossary On
Versions: 1 2 3 4 5 6 7 8 9 10 11 12 13 14 15 16 17 18 19 20 21 22 23 24 25 26 27 28 29 30 31 32 33 34 35 36 37 38 39 40 41 42 43 44 45 46 47 48 49 50
000
ASUS43 KOAX 311602
RWRNE

WEATHER ROUNDUP FOR NEBRASKA
NATIONAL WEATHER SERVICE OMAHA NE
1100 AM CDT FRI OCT 31 2014

NOTES: SATELLITE DATA IS BEING USED TO AUGMENT CLOUD COVER ABOVE
       12000 FEET.
       "FAIR" INDICATES FEW OR NO CLOUDS BELOW 12,000 FEET WITH NO
       SIGNIFICANT WEATHER AND/OR OBSTRUCTIONS TO VISIBILITY.

  * THESE STATIONS DO NOT REPORT WEATHER SUCH AS RAIN...SNOW OR FOG.

NEZ001>004-019>022-054>056-311700-
NEBRASKA PANHANDLE

CITY           SKY/WX    TMP DP  RH WIND       PRES   REMARKS
SCOTTSBLUFF    CLOUDY    35  32  88 SE14      30.36F WCI  26
ALLIANCE       CLOUDY    31  30  96 SE17G25   30.39F WCI  19
CHADRON        MOSUNNY   37  30  75 S13G18    30.36F WCI  29
KIMBALL        CLOUDY    32  31  99 S18       30.34F FOG     WCI  20
SIDNEY         CLOUDY    32  29  88 S18       30.41F WCI  20
$$

NEZ057>060-069>072-079>082-311700-
SOUTHWEST NEBRASKA

CITY           SKY/WX    TMP DP  RH WIND       PRES   REMARKS
NORTH PLATTE   CLOUDY    32  24  72 SE7       30.52F WCI  26
IMPERIAL       CLOUDY    29  27  92 SE9       30.51S WCI  20
LEXINGTON      MOSUNNY   32  22  67 SE5       30.56F WCI  28
MCCOOK         CLOUDY    33  24  69 E8        30.55F WCI  26
OGALLALA       CLOUDY    32  29  89 SE10      30.49S WCI  24
$$

NEZ005>010-023>029-035>040-094-311700-
NORTH CENTRAL NEBRASKA

CITY           SKY/WX    TMP DP  RH WIND       PRES   REMARKS
VALENTINE      MOSUNNY   31  21  66 S10       30.51S WCI  22
AINSWORTH      SUNNY     29  20  68 SE8       30.52S WCI  22
BROKEN BOW     SUNNY     32  22  66 S5        30.54S WCI  27
O`NEILL        SUNNY     31  22  69 SE3       30.57S
ORD            SUNNY     32  20  61 NE6       30.56S WCI  26
THEDFORD       MOSUNNY   32  24  71 S8        30.51F WCI  25
$$

NEZ041-046>049-061>064-073>077-083>087-311700-
SOUTH CENTRAL NEBRASKA

CITY           SKY/WX    TMP DP  RH WIND       PRES   REMARKS
GRAND ISLAND   SUNNY     33  19  56 N9        30.59R WCI  25
AURORA         SUNNY     32  18  57 NE8       30.58S WCI  25
HASTINGS       SUNNY     32  18  56 NE7       30.57S WCI  26
HEBRON         SUNNY     34  15  45 NE9       30.58S WCI  27
HOLDREGE       SUNNY     32  20  61 CALM      30.57S
KEARNEY *      SUNNY     30  18  59 N8        30.57S WCI  23
YORK           SUNNY     32  19  59 NE10      30.58S WCI  24
$$

NEZ011>018-030>034-042>045-311700-
NORTHEAST NEBRASKA

CITY           SKY/WX    TMP DP  RH WIND       PRES   REMARKS
NORFOLK        SUNNY     32  18  56 NE7       30.58S WCI  26
ALBION         SUNNY     32  19  59 NE6       30.58R WCI  26
BLAIR          SUNNY     33  20  59 N12G17    30.56R WCI  24
FREMONT        SUNNY     34  20  58 N8        30.59R WCI  27
TEKAMAH        SUNNY     34  20  56 N14       30.60R WCI  25
WAYNE          SUNNY     33  20  59 NE12      30.59F WCI  24
$$

NEZ050>053-065>068-078-088>093-311700-
SOUTHEAST NEBRASKA

CITY           SKY/WX    TMP DP  RH WIND       PRES   REMARKS
LINCOLN        SUNNY     35  19  52 NE13      30.59F WCI  26
OMAHA EPPLEY   SUNNY     34  20  56 N12       30.59S WCI  25
BEATRICE       SUNNY     34  19  52 N12G20    30.56S WCI  26
FALLS CITY     SUNNY     37  18  46 N13G22    30.55R WCI  29
NEBRASKA CITY  SUNNY     35  14  41 N12       30.55S WCI  27
PLATTSMOUTH    SUNNY     33  17  51 N10G16    30.56F WCI  25
$$

NEZ044-045-051>053-067-311700-
OMAHA AREA

CITY           SKY/WX    TMP DP  RH WIND       PRES   REMARKS
OMAHA EPPLEY   SUNNY     34  20  56 N12       30.59S WCI  25
BLAIR          SUNNY     33  20  59 N12G17    30.56R WCI  24
FREMONT        SUNNY     34  20  58 N8        30.59R WCI  27
MILLARD        SUNNY     33  20  56 NE8       30.58S WCI  27
OFFUTT AFB     SUNNY     34  20  55 N8        30.57S WCI  28
PLATTSMOUTH    SUNNY     33  17  51 N10G16    30.56F WCI  25
WAHOO          FAIR      34  18  52 N13       30.58S WCI  25
$$



USA.gov is the U.S. government's official web portal to all federal, state and local government web resources and services.